Regional Weather Roundup
Issued by NWS Wakefield, VA

Home | Current Version | Previous Version | Graphics & Text | Print | Product List | Glossary On
Versions: 1 2 3 4 5 6 7 8 9 10 11 12 13 14 15 16 17 18 19 20 21 22 23 24 25 26 27
000
ASUS41 KAKQ 260615
RWRAKQ

REGIONAL WEATHER ROUNDUP
NATIONAL WEATHER SERVICE WAKEFIELD VA
200 AM EDT MON SEP 26 2016

Note: "fair" indicates few or no clouds below 12,000 feet with no
significant weather and/or obstructions to visibility. * = Denotes
station may not report precipitation (e.g., rain,snow,etc.),
thunder or fog.

VAZ042-051-052>054-056-260700-
NORTHERN VIRGINIA

CITY           SKY/WX    TMP DP  RH WIND       PRES   REMARKS
WASH NATIONAL  MOCLDY    65  53  65 SE3       30.17S
DULLES         CLOUDY    58  53  84 CALM      30.17R
FORT BELVOIR   CLOUDY    57  55  92 CALM      30.16S
QUANTICO         N/A     63  58  83 CALM      30.17S
FREDERICKSBRG* CLOUDY    63  60  91 CALM      30.16R
STAFFORD*      CLOUDY    60  60 100 CALM      30.20S
WARRENTON      CLOUDY    62  55  78 CALM      30.17R
CULPEPER*      CLOUDY    62  60  95 CALM      30.18R
MANASSAS*      CLOUDY    59  59 100 CALM      30.17S
LEESBURG*      CLOUDY    59  57  94 CALM      30.18S
WINCHESTER     CLOUDY    57  54  88 CALM      30.15S
FRONT ROYAL*   CLOUDY    55  55 100 CALM      30.14S
LURAY*         CLOUDY    63  63 100 CALM      30.15S
$$

VAZ048-049-060>072-079>083-260700-
CENTRAL AND SOUTH CENTRAL VIRGINIA

CITY           SKY/WX    TMP DP  RH WIND       PRES   REMARKS
RICHMOND       CLOUDY    64  59  83 CALM      30.16S
CHESTERFIELD*  CLOUDY    66  48  52 CALM      30.18S
PETERSBURG*    CLOUDY    67  63  89 CALM      30.17S
HANOVER        CLOUDY    63  58  83 CALM      30.18S
TAPPAHANNOCK*  CLOUDY    61  61 100 CALM      30.17S
QUINTON*       CLOUDY    61  58  91 CALM      30.16S
CHARLOTTSVILLE CLOUDY    63  59  87 CALM      30.17R
GORDONSVILLE*  CLOUDY    63  61  94 CALM      30.16S
ORANGE*          N/A     63  63 100 CALM      30.18S
LOUISA*        CLOUDY    66  63  88 CALM      30.16R
BUMPASS*       CLOUDY    63  58  86 CALM      30.17R
FARMVILLE*     CLOUDY    67  61  78 SE8       30.15S
CREWE*         CLOUDY    66  63  90 S3        30.16S
FORT PICKETT*  CLOUDY    65  62  91 SE3       30.16S
CHASE CITY*    CLOUDY    65  62  90 E3        30.15F
CLARKSVILLE*   CLOUDY    66  64  94 CALM      30.15F
SOUTH HILL*    CLOUDY    64  61  90 CALM      30.21F
LAWRENCEVILLE* CLOUDY    65  61  88 CALM      30.16S
EMPORIA*       CLOUDY    64  61  88 CALM      30.18R
$$

VAZ088>098-260700-
SOUTHEAST VIRGINIA

CITY           SKY/WX    TMP DP  RH WIND       PRES   REMARKS
NORFOLK        CLEAR     63  57  81 CALM      30.17R
VIRGINIA BEACH PTCLDY    59  55  87 SW3       30.16S
NORFOLK NAVAL  PTCLDY    62  58  86 S3        30.18S
WEST POINT*    CLOUDY    61  57  86 E5        30.18S
SALUDA*        MOCLDY    61  58  92 CALM      30.16S
NEWPORT NEWS   CLOUDY    62  60  93 CALM      30.17S
LANGLEY AFB    MOCLDY    62  59  90 S2        30.16S
FORT EUSTIS    MOCLDY    63  58  83 E2        30.14S
WILLIAMSBURG*  CLEAR     64  61  88 CALM      30.17S
HR EXEC AP*    MOCLDY    57  55  94 CALM      30.19S
FRANKLIN*      CLOUDY    63  59  87 CALM      30.17S
US460-WAKEFLD  MOCLDY    64  58  80 CALM      30.16S
$$

VAZ020-022-025-037-045-260700-
WEST CENTRAL AND SOUTHWEST VIRGINIA

CITY           SKY/WX    TMP DP  RH WIND       PRES   REMARKS
STAUNTON*      CLOUDY    62  59  89 S3        30.17F
WAYNESBORO*    CLOUDY    61  58  91 E7        30.17R
HOT SPRINGS VA RAIN      51  51 100 S6        30.20S VSB<1/4
LYNCHBURG      CLOUDY    63  63 100 CALM      30.17S FOG
DANVILLE       CLOUDY    68  62  81 CALM      30.15S
SOUTH BOSTON*  CLOUDY    67  65  95 CALM      30.15S
MARTINSVILLE   CLOUDY    66  65  97 CALM      30.17S FOG
ROANOKE        CLOUDY    65  63  93 SE7       30.17F
BLACKSBURG     CLOUDY    64  64  99 SE6       30.20S FOG
DUBLIN*        DRIZZLE   67  66  97 CALM      30.18S
MARION*        CLOUDY    65  64  96 CALM      30.20R FOG
HILLSVILLE*    CLOUDY    64  64 100 S6        30.18S FOG
RICHLANDS*     FAIR      67  65  93 SE3       30.15S
WISE*          CLEAR     70  55  60 S6        30.15F
ABINGDON*      CLEAR     69  66  89 CALM      30.13S
$$

MDZ021>025-VAZ099-100-260700-
SOUTHERN MARYLAND AND THE DELMARVA PENINSULA

CITY           SKY/WX    TMP DP  RH WIND       PRES   REMARKS
PATUXENT RIVER CLOUDY    60  55  83 S5        30.16S
BAY BRIDGE APT CLEAR     61  55  82 MISG      30.17S
LEONARDTOWN    CLOUDY    55  54  94 CALM      30.18S
DOVER          PTCLDY    56  55  99 S2        30.17S
GEORGETOWN     CLEAR     51  49  92 CALM      30.19R
EASTON         NOT AVBL
CAMBRIDGE      CLEAR     52  50  93 CALM      30.17S
SALISBURY      CLEAR     53  51  93 CALM      30.18R
OCEAN CITY     CLEAR     53  51  93 CALM      30.18S
WALLOPS ISLAND CLEAR     59  56  89 CALM      30.18S
ACCOMACK*      CLOUDY    56  54  91 SE3       30.17S
$$

NCZ012>017-030>032-260700-
NORTH CENTRAL AND EASTERN NORTH CAROLINA

CITY           SKY/WX    TMP DP  RH WIND       PRES   REMARKS
ROANOKE RAPIDS CLOUDY    64  61  88 CALM      30.16F
RALEIGH        CLOUDY    69  60  73 SE7       30.16R
ELIZABETH CITY CLOUDY    65  59  81 E5        30.17R
AHOSKIE*       CLOUDY    64  62  94 CALM      30.17S
EDENTON*       CLOUDY    66  60  83 CALM      30.17S
CURRITUCK*     PTCLDY    66  57  72 E5        30.17S
KILL DEVIL HLS NOT AVBL
MANTEO         CLEAR     64  57  77 E3        30.16R
CAPE HATTERAS  MOCLDY    69  59  70 NE6       30.13S
TARBORO*       CLOUDY    67  63  86 CALM      30.16F
GOLDSBORO      PTCLDY    65  65  98 S2        30.13S
WASHINGTON     CLEAR     61  60  94 N3        30.16S
GREENVILLE     MOCLDY    64  63  94 CALM      30.17R
NEW BERN       CLEAR     66  59  78 NE8       30.14S
WILMINGTON     MOCLDY    67  64  90 N3        30.12R
$$

VAZ048-260700-
ELSEWHERE

CITY           SKY/WX    TMP DP  RH WIND       PRES   REMARKS
HARRISBURG PA  CLOUDY    53  50  89 CALM      30.16F
BALTIMORE      PTCLDY    53  50  89 CALM      30.17S
ANNAPOLIS      PTCLDY    63  56  78 S3        30.16S
ANDREWS AFB    MOCLDY    58  51  77 CALM      30.16R
PHILADELPHIA   MOCLDY    58  47  66 N3        30.18F
HENDERSON NC   CLOUDY    64  59  83 SE3       30.16S
GREENSBORO     CLOUDY    69  67  93 SE9       30.14S
ROCKY MOUNT    CLOUDY    66  62  87 CALM      30.16S
$$

VAZ100-260700-
MARINE

STATION/POSITION TIME  TEMP    WIND        PRES    WAVE   SWELL
                       AIR SEA DIR/SP/G            HT/PER HT/PER
                 (UTC) (F)     (DEG/KT/KT) (MB)    (FT/S) (FT/S)
BRANDYWINE LGT   0500   66     200/  7/  9   N/A
CAPE MAY NJ      0500   58 72  100/  2/  3 1021.3F
LEWES DE         0500   59 73  210/  4/  5 1021.5F
OCEAN-CITY-INLET 0500   66 72  140/  4/  5 1022.0F
WACHAPREAGUE VA  0500   66 75  110/  4/  5 1021.8S
THOMAS POINT MD  0600   67 75  160/ 11/ 12 1022.7R
GOOSES REEF MD   0600   67 75  170/ 10/ 12 1022.0R   1/ 2
COVE POINT MD    0500   67     170/ 11/ 12 1022.0F
SOLOMONS ISLAND  0500   69 76  110/  7/  9   N/A
BISHOPS HEAD MD  0500   67 72  130/ 10/ 12 1021.7F
PINEY POINT MD   0500          130/  9/ 10   N/A
POTOMAC MD       0600   70 76  160/ 10/ 14 1020.5R   1
CAMBRIDGE MD     0500   61 74  140/  3/  5 1020.8F
LEWISETTA VA     0500   67 75  170/  5/  6 1021.0F
RAPPAHANNOCK LGT 0500          100/  9/ 10 1022.1R
STINGRAY PT      0600   70 76   90/  8/ 10 1021.8F   1/ 2
YORK RVR RNG VA  0500   70     120/  8/ 11 1020.9F
YORKTOWN VA      0500   68 77  180/  3/  4 1021.0F
JAMESTOWN VA     0600   69 77  140/  8/ 10   N/A     0
DOMINION TERM VA 0500   70     120/  9/ 13 1021.3F
KIPTOPEKE VA     0500      77   80/  2/  2   N/A
CHES BAY BRIDGE  0500   70 77   80/  6/ 10 1021.2F
CAPE HENRY VA    0500   69      80/  9/ 11   N/A
WILLOUBY STN VA  0500   69      90/  2/  6   N/A
CAPE HENRY BUOY  0512      76                N/A     3/10
1ST LANDING BUOY 0600   70 76  110/ 10/ 14 1021.5R   2/ 4
CAPE CHARLES BUO 0526      76                N/A     3/10
OFFSHORE WE BUOY 0521      75                N/A     4/10   2/11
64NM E OF VA BCH 0550   70 74   60/ 10/ 12 1021.0R   4/10   3/10
DUCK PIER NC     0500   70 76   60/  8/ 12 1020.6S
44056 DUCK FRF   0511      76                N/A     3/10   2/11
OREGON INLET NC  0500   69 77   50/  5/  8 1020.6F
HATTERAS NC      0500   71 78   40/  8/ 11 1019.9F
DIAMOND SHLS NC  0550   74 84   40/ 14/ 16 1019.2F   3/ 8   2/ 8
CAPE LOOKOUT NC  0600   74      50/ 13/ 15 1019.3S
$$




USA.gov is the U.S. government's official web portal to all federal, state and local government web resources and services.